DW7756 Weather Reports


Display with metric or nautical units.
time (UTC)temp
F
wind
direction
speed
MPH
gust
MPH
rain 1hr
in
rain 24hr
in
rain mn
in
humidity
%
barometer
mb
20260903221538 82 86 1.0 4.0 0.00 0.68 0.68 83 1014.0
20260903220037 82 88 2.0 7.0 0.00 0.68 0.68 83 1013.9
20260903214541 82 88 1.0 9.0 0.00 0.68 0.68 82 1014.0
20260903213044 83 85 1.0 3.0 0.00 0.68 0.68 82 1013.9
20260903211555 83 80 1.0 4.0 0.00 0.68 0.68 82 1013.6
20260903210038 83 159 2.0 4.0 0.00 0.68 0.68 82 1013.3
20260903204538 83 80 1.0 5.0 0.00 0.68 0.68 82 1013.3
20260903203040 83 67 1.0 3.0 0.00 0.68 0.68 83 1013.6
20260903201538 82 0 0.0 4.0 0.00 0.68 0.68 85 1013.7
20260903194539 81 67 2.0 5.0 0.00 0.68 0.68 88 1014.2
20260903193039 80 86 3.0 8.0 0.00 0.68 0.68 89 1014.1
20260903191539 80 97 1.0 6.0 0.00 0.68 0.68 90 1014.2
20260903190038 80 118 2.0 5.0 0.00 0.68 0.68 91 1014.4
20260903184548 80 71 1.0 6.0 0.00 0.68 0.68 91 1014.7
20260903183035 79 55 1.0 8.0 0.00 0.68 0.68 91 1015.0
20260903181542 79 66 1.0 4.0 0.00 0.68 0.68 91 1015.3
20260903180039 79 62 1.0 4.0 0.00 0.68 0.68 91 1015.3
20260903174539 79 146 1.0 4.0 0.01 0.88 0.68 92 1015.2
20260903173039 78 101 1.0 7.0 0.02 0.88 0.68 91 1015.3
20260903171544 78 69 1.0 4.0 0.03 0.88 0.68 91 1015.1
20260903170036 78 118 1.0 5.0 0.07 0.88 0.68 91 1015.4
20260903164536 78 119 1.0 4.0 0.07 0.87 0.67 91 1015.4
20260903163042 77 80 1.0 3.0 0.06 0.86 0.66 91 1015.9
20260903161538 77 80 1.0 4.0 0.05 0.85 0.65 91 1015.9
20260903160038 77 63 1.0 9.0 0.02 0.81 0.61 91 1016.0
20260903154539 77 103 2.0 7.0 0.01 0.90 0.60 91 1016.3
20260903153040 77 94 2.0 9.0 0.02 0.90 0.60 91 1016.3
20260903151539 78 61 1.0 3.0 0.02 0.90 0.60 91 1016.1
20260903150036 78 46 1.0 3.0 0.01 0.89 0.58 91 1016.2
20260903144539 78 19 1.0 2.0 0.02 0.89 0.58 91 1016.0
20260903143040 78 46 1.0 2.0 0.03 0.88 0.58 91 1016.0
20260903141535 78 5 1.0 3.0 0.04 0.88 0.58 91 1015.8
20260903140045 77 329 1.0 3.0 0.04 0.88 0.58 91 1015.6
20260903134535 77 0 0.0 3.0 0.03 0.87 0.57 91 1015.7
20260903133042 77 0 0.0 2.0 0.01 0.85 0.55 91 1015.5
20260903131537 77 0 0.0 2.0 0.00 0.84 0.54 91 1015.3
20260903130054 77 40 0.0 3.0 0.00 0.84 0.54 91 1015.4
20260903124547 77 348 2.0 5.0 0.00 0.84 0.54 91 1015.3
20260903123045 77 5 2.0 7.0 0.00 0.84 0.54 91 1015.3
20260903121539 77 341 2.0 5.0 0.05 0.84 0.54 91 1015.1
20260903120037 77 12 2.0 3.0 0.06 0.84 0.54 90 1015.0
20260903114539 77 304 2.0 5.0 0.06 0.84 0.54 90 1015.0
20260903113036 77 333 1.0 3.0 0.06 0.84 0.54 90 1014.9
20260903111537 77 0 0.0 4.0 0.15 0.79 0.49 90 1014.6
20260903110044 76 270 1.0 2.0 0.47 0.78 0.48 90 1014.2
20260903104536 76 285 2.0 4.0 0.47 0.78 0.48 90 1014.0
20260903103038 76 360 1.0 3.0 0.47 0.78 0.48 90 1013.7
20260903101539 78 129 0.0 2.0 0.31 0.62 0.32 90 1013.7
20260903100041 78 184 1.0 3.0 0.00 0.31 0.01 90 1013.7
20260903094545 78 0 0.0 0.0 0.00 0.31 0.01 90 1013.6
20260903093034 78 0 0.0 0.0 0.00 0.31 0.01 90 1013.4
20260903091539 78 0 0.0 0.0 0.00 0.31 0.01 89 1013.4
20260903090051 78 0 0.0 0.0 0.00 0.31 0.01 89 1013.4
20260903084538 78 0 0.0 0.0 0.00 0.31 0.01 89 1013.4
20260903083054 78 0 0.0 0.0 0.00 0.31 0.01 89 1013.4
20260903081536 78 0 0.0 0.0 0.00 0.31 0.01 89 1013.2
20260903080039 78 0 0.0 0.0 0.01 0.31 0.01 89 1013.3
20260903074541 78 0 0.0 0.0 0.01 0.31 0.01 89 1013.3
20260903073038 78 0 0.0 0.0 0.01 0.31 0.01 89 1013.4
20260903071553 78 0 0.0 0.0 0.01 0.31 0.01 89 1013.5
20260903070039 78 0 0.0 0.0 0.00 0.30 0.00 88 1013.8
20260903064538 78 0 0.0 0.0 0.00 0.30 0.00 88 1013.9
20260903063045 78 0 0.0 0.0 0.00 0.30 0.00 88 1013.9
20260903061539 78 0 0.0 1.0 0.00 0.30 0.00 88 1014.2
20260903060109 78 0 0.0 3.0 0.00 0.30 0.00 88 1014.4
20260903054536 78 89 1.0 4.0 0.00 0.30 0.00 88 1014.6
20260903053038 78 109 0.0 2.0 0.00 0.30 0.00 88 1014.7
20260903051535 79 0 0.0 0.0 0.00 0.30 0.00 88 1014.7
20260903050040 79 0 0.0 2.0 0.00 0.30 0.00 88 1014.9
20260903044540 79 0 0.0 2.0 0.00 0.31 0.00 88 1015.0
20260903043035 79 109 1.0 2.0 0.00 0.31 0.00 88 1015.2
20260903041540 79 0 0.0 0.0 0.00 0.31 0.00 87 1015.2
20260903040054 79 0 0.0 0.0 0.00 0.31 0.00 87 1015.1
20260903034542 79 0 0.0 2.0 0.00 0.31 0.31 87 1015.3
20260903033040 79 93 1.0 2.0 0.00 0.31 0.31 87 1015.2
20260903031538 79 93 0.0 3.0 0.00 0.31 0.31 87 1015.3
20260903030039 79 0 0.0 2.0 0.00 0.31 0.31 86 1015.3
20260903024539 79 0 0.0 3.0 0.00 0.31 0.31 86 1015.2
20260903023051 79 49 0.0 2.0 0.00 0.31 0.31 86 1015.2
20260903021538 80 69 0.0 2.0 0.00 0.31 0.31 86 1015.3
20260903020040 80 0 0.0 4.0 0.00 0.31 0.31 86 1015.4
20260903014546 80 0 0.0 2.0 0.00 0.31 0.31 85 1015.5
20260903013047 80 0 0.0 2.0 0.00 0.31 0.31 85 1015.3
20260903011543 80 81 0.0 2.0 0.00 0.31 0.31 84 1015.1
20260903010045 80 81 1.0 4.0 0.00 0.31 0.31 84 1014.9
20260903004535 81 89 1.0 3.0 0.00 0.32 0.31 84 1015.0
20260903003039 81 100 1.0 2.0 0.00 0.32 0.31 84 1014.7
20260903001538 81 0 0.0 4.0 0.00 0.32 0.31 83 1014.9
20260903000035 82 126 1.0 4.0 0.00 0.32 0.31 82 1014.9
20260902234551 82 74 1.0 4.0 0.00 0.33 0.31 82 1014.6
20260902233037 82 76 1.0 3.0 0.00 0.33 0.31 81 1014.4
20260902231543 83 101 1.0 5.0 0.00 0.33 0.31 81 1014.2
20260902230039 83 58 1.0 5.0 0.00 0.33 0.31 80 1014.3
20260902224542 84 86 2.0 6.0 0.00 0.33 0.31 79 1014.1
20260902223037 84 90 2.0 4.0 0.00 0.33 0.31 79 1014.1